This demonstration page uses our WeatherBlox Daily Observations layout. Learn more.

39.92423, -83.80882

Hourly Observations for June 4, 2020

Temp ( °F °C ) Dew Point ( °F °C ) Humidity (%) Winds ( mph kmh ) Pressure ( in mb ) Visibility ( mi km ) Precip ( " mm )
12:56 am 00:56 Mostly Clear 69 20.6 66 18.9 90 90 S 6 9 29.83 1010 10 16.0934 0 0
1:56 am 01:56 Clear 68 20 67 19.4 96 96 Calm 29.82 1010 10 16.0934 0 0
2:56 am 02:56 Mostly Cloudy 67 19.4 67 19.4 100 100 Calm 29.83 1010 10 16.0934 0 0
3:56 am 03:56 Mostly Cloudy 68 20 68 20 100 100 Calm 29.82 1010 10 16.0934 0 0
4:56 am 04:56 Mostly Cloudy 67 19.4 67 19.4 100 100 Calm 29.83 1010 10 16.0934 0 0
5:56 am 05:56 Mostly Clear with Light Rain 68 20 68 20 100 100 SW 3 6 29.83 1010 10 16.0934 0.001 0.001
6:56 am 06:56 Mostly Sunny 67 19.4 67 19.4 100 100 Calm 29.82 1010 8 12.87472 0.001 0.001
7:56 am 07:56 Mostly Cloudy 69 20.6 69 20.6 100 100 ESE 6 9 29.84 1010 10 16.0934 0 0
8:56 am 08:56 Mostly Sunny 71 21.7 70 21.1 96 96 S 7 11 29.84 1010 10 16.0934 0 0
9:56 am 09:56 Mostly Sunny 76 24.4 70 21.1 82 82 SSE 3 6 29.84 1011 10 16.0934 0 0
10:56 am 10:56 Mostly Sunny 78 25.6 70 21.1 76 76 SSE 9 15 29.82 1010 10 16.0934 0 0
11:56 am 11:56 Cloudy 80 26.7 72 22.2 76 76 SSW 12 19 29.84 1010 10 16.0934 0 0
12:09 pm 12:09 Cloudy 81 27 72 22 74 74 WSW 9 15 29.81 1009 10 16.0934 0 0
12:32 pm 12:32 Partly Cloudy with Light Rain 75 24 72 22 89 89 SW 10 17 29.81 1009 10 16.0934 0.001 0.001
12:56 pm 12:56 Sunny 80 26.7 74 23.3 82 82 SW 13 20 29.82 1010 10 16.0934 0.001 0.001
1:56 pm 13:56 Mostly Cloudy 84 28.9 70 21.1 63 63 W 17 28 29.78 1009 10 16.0934 0 0
2:51 pm 14:51 Sunny with Thunderstorms 81 27 70 21 70 70 W 17 28 29.78 1008 10 16.0934 0 0
2:56 pm 14:56 Partly Cloudy with Thunderstorms 81 27.2 69 20.6 67 67 SW 20 31 29.81 1010 10 16.0934 0 0
3:19 pm 15:19 Cloudy 79 26 66 19 65 65 SW 14 22 29.79 1009 10 16.0934 0 0
3:56 pm 15:56 Mostly Cloudy 76 24.4 68 20 77 77 S 9 15 29.8 1009 10 16.0934 0.001 0.001
4:56 pm 16:56 Sunny 79 26.1 70 21.1 74 74 WSW 12 19 29.78 1009 10 16.0934 0 0
5:56 pm 17:56 Sunny 82 27.8 69 20.6 65 65 SSW 8 13 29.79 1009 10 16.0934 0 0
6:56 pm 18:56 Cloudy with Light Rain 78 25.6 70 21.1 76 76 S 7 11 29.8 1009 10 16.0934 0.001 0.001
7:29 pm 19:29 Mostly Cloudy with Nearby Thunderstorms 75 24 72 22 89 89 Calm 29.78 1008 10 16.0934 0.001 0.001
7:44 pm 19:44 Partly Cloudy with Light Rain 75 24 72 22 89 89 S 5 7 29.79 1009 10 16.0934 0.001 0.001
7:56 pm 19:56 Mostly Cloudy with Light Rain 75 23.9 72 22.2 90 90 SW 5 7 29.82 1010 10 16.0934 0.001 0.001
8:05 pm 20:05 Mostly Cloudy with Light Thunderstorms 73 23 72 22 94 94 SW 15 24 29.81 1010 7 11.26538 0.001 0.001
8:11 pm 20:11 Cloudy with Heavy Thunderstorms 72 22 70 21 94 94 Calm 29.81 1010 1.75 2.816345 0.001 0.001
8:20 pm 20:20 Cloudy with Light Thunderstorms 72 22 72 22 100 100 S 7 11 29.8 1009 4 6.43736 0 0
8:40 pm 20:40 Cloudy with Light Rain 70 21 70 21 100 100 SSW 5 7 29.81 1009 10 16.0934 0 0
8:56 pm 20:56 Mostly Cloudy 71 21.7 71 21.7 100 100 SW 6 9 29.83 1010 10 16.0934 0 0
9:56 pm 21:56 Clear 71 21.7 71 21.7 100 100 SSW 7 11 29.83 1010 10 16.0934 0 0
10:56 pm 22:56 Clear 69 20.6 69 20.6 100 100 SW 3 6 29.83 1010 10 16.0934 0 0
11:56 pm 23:56 Clear 69 20.6 69 20.6 100 100 Calm 29.85 1011 10 16.0934 0 0

Powered by AerisWeather